Weather History for Statesboro, GA

Change the Weather History Date:

Tuesday, May 28, 2013

  Actual Average (KSAV) Record (KSAV)
Temperature  
Mean Temperature 72 °F 76 °F  
Max Temperature 85 °F 87 °F 96 °F (1964)
Min Temperature 60 °F 66 °F 48 °F (1961)
Degree Days  
Heating Degree Days 0 0  
Month to date heating degree days 6  
Since 1 July heating degree days 1809  
Cooling Degree Days 8 11  
Month to date cooling degree days 231  
Year to date cooling degree days 367  
Growing Degree Days 22 (Base 50)    
Moisture  
Dew Point 58 °F    
Average Humidity 64    
Maximum Humidity 100    
Minimum Humidity 35    
Precipitation  
Precipitation 0.00 in 0.12 in 2.31 in (1934)
Month to date precipitation 2.59  
Year to date precipitation 15.87  
Sea Level Pressure  
Sea Level Pressure 30.20 in    
Wind  
Wind Speed 3 mph (SE)    
Max Wind Speed 12 mph    
Max Gust Speed 20 mph    
Visibility 10 miles    
Events      
T = Trace of Precipitation, MM = Missing Value Source: NWS Daily Summary

Daily Weather History Graph

Daily Weather History Graph

Search for Another Location

Airport:

Trip Planner

Search our weather history database for the weather conditions in past years. The results will help you decide how hot, cold, wet, or windy it might be!

Date:

Astronomy

May. 28, 2013 Rise Set
Actual Time 6:21 AM EDT 8:27 PM EDT
Civil Twilight 5:53 AM EDT 8:55 PM EDT
Nautical Twilight 5:20 AM EDT 9:28 PM EDT
Astronomical Twilight 4:43 AM EDT 10:05 PM EDT
Moon 11:57 PM EDT (5/28) 10:03 AM EDT (5/28)
Length of Visible Light 15h 01m
Length of Day
14h 05m
Waning Gibbous, 83% of the Moon is Illuminated
May 28
Waning Gibbous
May 31
Last Quarter
Jun 8
New
Jun 16
First Quarter
Jun 23
Full

Hourly Weather History & Observations

Time (EDT) Temp. Heat Index Dew Point Humidity Pressure Visibility Wind Dir Wind Speed Gust Speed Precip Events Conditions
12:15 AM 68.2 °F - 58.6 °F 71% 30.22 in 10.0 mi SSE 3.5 mph - N/A   Clear
12:35 AM 67.6 °F - 58.6 °F 73% 30.21 in 10.0 mi SSE 3.5 mph - N/A   Clear
12:55 AM 67.1 °F - 58.6 °F 74% 30.21 in 10.0 mi Calm Calm - N/A   Clear
1:15 AM 66.7 °F - 59.0 °F 76% 30.21 in 10.0 mi Calm Calm - N/A   Clear
1:35 AM 64.4 °F - 61.9 °F 92% 30.21 in 10.0 mi Calm Calm - N/A   Clear
1:55 AM 63.5 °F - 61.9 °F 94% 30.20 in 10.0 mi Calm Calm - N/A   Clear
2:15 AM 64.4 °F - 62.4 °F 93% 30.20 in 10.0 mi Calm Calm - N/A   Clear
2:35 AM 63.9 °F - 62.4 °F 95% 30.20 in 10.0 mi SSE 3.5 mph - N/A   Clear
2:55 AM 65.1 °F - 63.1 °F 93% 30.19 in 10.0 mi SE 3.5 mph - N/A   Clear
3:15 AM 65.3 °F - 63.3 °F 93% 30.19 in 10.0 mi Calm Calm - N/A   Clear
3:35 AM 63.5 °F - 62.2 °F 96% 30.19 in 10.0 mi Calm Calm - N/A   Clear
3:55 AM 61.9 °F - 61.5 °F 99% 30.19 in 10.0 mi Calm Calm - N/A   Clear
4:15 AM 62.8 °F - 61.9 °F 97% 30.19 in 10.0 mi Calm Calm - N/A   Clear
4:35 AM 61.3 °F - 60.4 °F 97% 30.19 in 10.0 mi Calm Calm - N/A   Clear
4:55 AM 62.4 °F - 62.2 °F 99% 30.18 in 10.0 mi Calm Calm - N/A   Clear
5:15 AM 62.2 °F - 61.5 °F 97% 30.18 in 10.0 mi Calm Calm - N/A   Clear
5:35 AM 61.9 °F - 61.3 °F 98% 30.19 in 10.0 mi Calm Calm - N/A   Clear
5:55 AM 61.5 °F - 60.8 °F 97% 30.20 in 10.0 mi Calm Calm - N/A   Clear
6:15 AM 60.8 °F - 60.8 °F 100% 30.20 in 10.0 mi Calm Calm - N/A   Clear
6:35 AM 60.6 °F - 60.3 °F 99% 30.20 in 10.0 mi Calm Calm - N/A   Clear
6:55 AM 61.0 °F - 61.0 °F 100% 30.20 in 5.0 mi Calm Calm - N/A   Clear
7:15 AM 63.3 °F - 63.1 °F 99% 30.20 in 10.0 mi Calm Calm - N/A   Clear
7:35 AM 65.1 °F - 63.5 °F 94% 30.21 in 10.0 mi Calm Calm - N/A   Clear
7:55 AM 68.2 °F - 65.5 °F 91% 30.21 in 10.0 mi Calm Calm - N/A   Clear
8:15 AM 69.4 °F - 65.5 °F 87% 30.21 in 10.0 mi Calm Calm - N/A   Clear
8:35 AM 70.5 °F - 65.5 °F 84% 30.22 in 10.0 mi Calm Calm - N/A   Clear
8:55 AM 72.9 °F - 62.1 °F 69% 30.22 in 10.0 mi SSE 3.5 mph - N/A   Clear
9:15 AM 74.8 °F - 61.2 °F 62% 30.22 in 10.0 mi SSE 3.5 mph - N/A   Clear
9:35 AM 76.3 °F - 60.6 °F 58% 30.22 in 10.0 mi South 8.1 mph - N/A   Scattered Clouds
9:55 AM 77.5 °F - 59.7 °F 54% 30.23 in 10.0 mi South 8.1 mph - N/A   Scattered Clouds
10:15 AM 77.7 °F - 59.5 °F 53% 30.23 in 10.0 mi South 9.2 mph - N/A   Scattered Clouds
10:35 AM 79.3 °F - 58.8 °F 49% 30.23 in 10.0 mi South 8.1 mph - N/A   Scattered Clouds
10:55 AM 79.5 °F - 57.6 °F 47% 30.23 in 10.0 mi SSE 5.8 mph - N/A   Mostly Cloudy
11:15 AM 79.9 °F - 56.8 °F 45% 30.23 in 10.0 mi ESE 8.1 mph - N/A   Scattered Clouds
11:35 AM 80.4 °F 80.6 °F 56.8 °F 44% 30.23 in 10.0 mi SSE 4.6 mph - N/A   Clear
11:55 AM 80.4 °F 80.8 °F 58.1 °F 46% 30.23 in 10.0 mi ESE 5.8 mph - N/A   Scattered Clouds
12:15 PM 82.2 °F 81.8 °F 56.3 °F 41% 30.23 in 10.0 mi SSE 8.1 mph - N/A   Scattered Clouds
12:35 PM 82.2 °F 81.5 °F 54.9 °F 39% 30.22 in 10.0 mi ESE 6.9 mph - N/A   Scattered Clouds
12:55 PM 82.2 °F 81.8 °F 56.1 °F 41% 30.22 in 10.0 mi SE 5.8 mph - N/A   Scattered Clouds
1:15 PM 83.7 °F 82.4 °F 54.3 °F 36% 30.21 in 10.0 mi South 6.9 mph - N/A   Scattered Clouds
1:35 PM 83.5 °F 82.4 °F 54.7 °F 37% 30.21 in 10.0 mi SE 8.1 mph - N/A   Scattered Clouds
1:55 PM 84.4 °F 83.1 °F 54.7 °F 36% 30.20 in 10.0 mi East 8.1 mph - N/A   Mostly Cloudy
2:15 PM 83.7 °F 82.7 °F 55.4 °F 38% 30.21 in 10.0 mi SE 9.2 mph - N/A   Mostly Cloudy
2:35 PM 84.7 °F 83.4 °F 54.9 °F 36% 30.20 in 10.0 mi SSE 10.4 mph - N/A   Mostly Cloudy
2:55 PM 85.5 °F 84.0 °F 55.2 °F 35% 30.20 in 10.0 mi SE 9.2 mph - N/A   Mostly Cloudy
3:15 PM 84.9 °F 83.4 °F 54.7 °F 35% 30.20 in 10.0 mi SSE 10.4 mph - N/A   Mostly Cloudy
3:35 PM 83.3 °F 82.2 °F 54.7 °F 37% 30.19 in 10.0 mi SE 8.1 mph 16.1 mph N/A   Scattered Clouds
3:55 PM 84.4 °F 83.1 °F 55.0 °F 36% 30.18 in 10.0 mi SE 9.2 mph 17.3 mph N/A   Mostly Cloudy
4:15 PM 84.4 °F 83.1 °F 55.0 °F 36% 30.18 in 10.0 mi SSE 8.1 mph - N/A   Scattered Clouds
4:35 PM 84.2 °F 82.8 °F 53.8 °F 35% 30.18 in 10.0 mi SSE 8.1 mph - N/A   Scattered Clouds
4:55 PM 84.2 °F 82.9 °F 54.9 °F 36% 30.18 in 10.0 mi SE 9.2 mph - N/A   Scattered Clouds
5:15 PM 83.3 °F 82.2 °F 54.7 °F 37% 30.18 in 1.0 mi SSE 6.9 mph - N/A   Haze
5:35 PM 82.4 °F 81.7 °F 55.0 °F 39% 30.18 in 10.0 mi SE 9.2 mph 17.3 mph N/A   Scattered Clouds
5:55 PM 82.4 °F 81.8 °F 55.6 °F 40% 30.17 in 10.0 mi SSE 11.5 mph 19.6 mph N/A   Scattered Clouds
6:15 PM 82.2 °F 81.5 °F 54.9 °F 39% 30.17 in 10.0 mi SE 8.1 mph - N/A   Clear
6:35 PM 81.5 °F 81.1 °F 55.4 °F 41% 30.17 in 10.0 mi SSE 9.2 mph - N/A   Clear
6:55 PM 81.0 °F 80.7 °F 55.2 °F 41% 30.16 in 10.0 mi SSE 4.6 mph - N/A   Clear
7:15 PM 79.9 °F - 54.3 °F 41% 30.16 in 10.0 mi SE 5.8 mph - N/A   Clear
7:35 PM 78.8 °F - 54.9 °F 44% 30.16 in 10.0 mi SSE 8.1 mph - N/A   Clear
7:55 PM 77.9 °F - 54.9 °F 45% 30.17 in 10.0 mi SE 5.8 mph - N/A   Clear
8:15 PM 77.0 °F - 54.3 °F 45% 30.18 in 10.0 mi SE 5.8 mph - N/A   Clear
8:35 PM 75.4 °F - 55.4 °F 50% 30.18 in 10.0 mi SE 5.8 mph - N/A   Clear
8:55 PM 74.5 °F - 56.5 °F 53% 30.19 in 10.0 mi SE 4.6 mph - N/A   Clear
9:15 PM 73.0 °F - 57.2 °F 57% 30.20 in 10.0 mi Calm Calm - N/A   Clear
9:35 PM 72.0 °F - 57.6 °F 60% 30.20 in 10.0 mi Calm Calm - N/A   Clear
9:55 PM 70.9 °F - 58.3 °F 64% 30.21 in 10.0 mi Calm Calm - N/A   Clear
10:15 PM 69.1 °F - 58.3 °F 68% 30.21 in 10.0 mi Calm Calm - N/A   Clear
10:35 PM 67.1 °F - 58.5 °F 74% 30.22 in 10.0 mi Calm Calm - N/A   Clear
10:55 PM 66.0 °F - 58.1 °F 76% 30.22 in 10.0 mi Calm Calm - N/A   Clear
11:15 PM 65.7 °F - 58.1 °F 77% 30.22 in 10.0 mi Calm Calm - N/A   Clear
11:35 PM 65.3 °F - 58.1 °F 77% 30.22 in 10.0 mi Calm Calm - N/A   Clear
11:55 PM 64.4 °F - 58.1 °F 80% 30.21 in 10.0 mi Calm Calm - N/A   Clear